RH
47 46 44 43 42 41 40 40 40 40 40 39 37 35 36 37 37 38 39 40 40 41 42 43 45 45 45 46 47 48 48 49 50 50 49 49 48 46 45 46 48 47 46 45 45 43 42 42 43 44 44 42 41 41 42 42 43 44 45 46 48 49 48
49 49 47 46 44 41 40 40 40 39 40 40 38 36 36 37 37 38 39 39 39 39 39 41 43 44 44 44 43 45 46 47 49 50 50 50 49 49 48 49 50 50 49 47 47 47 47 46 47 48 47 45 43 43 43 43 43 43 44 46 48 48 48
52 49 48 46 44 41 39 41 40 39 39 40 39 37 37 38 38 39 40 41 41 40 39 40 42 43 43 44 43 42 44 47 50 51 52 52 51 51 51 51 51 51 50 50 50 50 50 51 51 51 51 49 47 46 45 45 44 44 44 45 46 46 45
57 51 48 46 44 41 40 41 42 40 39 40 40 39 38 38 39 41 43 43 44 43 41 40 41 42 42 43 42 41 43 47 51 52 53 53 53 52 52 51 50 50 51 51 51 51 52 52 53 53 53 52 51 49 47 46 45 45 45 44 44 43 42
65 58 51 47 46 44 40 40 41 40 40 40 41 41 41 40 40 41 43 45 46 46 45 43 42 41 40 42 42 41 42 45 50 52 52 53 53 53 53 53 51 50 51 51 51 51 52 53 52 52 53 54 54 52 49 48 48 47 46 45 44 44 43
71 64 55 48 46 46 42 40 40 40 41 41 41 42 43 43 42 41 42 44 45 47 47 46 45 43 40 40 41 41 41 43 46 49 51 51 52 53 54 54 54 52 51 51 52 52 52 53 53 53 54 55 55 54 51 50 50 50 49 47 46 45 45
72 64 54 48 48 48 46 43 41 40 41 42 43 43 43 44 44 42 41 41 43 45 46 47 47 45 42 40 40 40 41 42 44 46 48 49 51 53 54 54 55 55 53 52 52 51 52 53 54 55 56 57 58 57 56 53 52 52 52 50 48 48 48
70 62 53 51 50 50 50 49 46 44 42 43 44 43 42 42 43 43 42 41 42 42 44 46 47 47 45 41 38 38 39 40 41 43 45 47 49 51 52 54 55 56 55 54 53 52 52 52 53 54 55 56 58 60 60 59 56 55 53 51 50 50 50
69 62 56 55 54 54 53 53 52 49 46 44 44 43 43 42 41 41 42 43 43 42 42 44 46 48 47 44 40 38 37 37 39 40 42 45 47 49 51 53 55 55 56 55 53 52 52 52 52 54 54 55 56 58 59 59 59 58 56 54 52 52 52
70 64 61 59 58 58 57 57 57 54 50 47 45 45 45 44 42 41 41 43 44 43 43 44 46 47 47 45 43 41 39 37 36 37 39 42 44 47 48 51 53 53 53 53 51 49 50 51 51 53 54 55 55 55 56 57 58 58 57 56 55 55 56
72 66 65 64 62 61 60 59 58 56 53 50 48 48 49 48 47 45 44 44 45 45 44 45 46 47 47 47 46 45 43 40 37 36 36 37 40 43 44 46 49 50 50 49 48 48 48 49 50 51 53 53 53 54 54 54 55 56 55 55 55 55 56
74 67 65 65 64 63 62 61 59 57 56 54 52 52 52 51 51 50 49 49 49 49 49 49 49 49 49 49 49 48 47 45 41 37 35 35 36 39 42 43 44 46 47 46 46 47 48 49 50 51 52 53 52 52 51 51 51 52 52 52 52 52 52
81 75 70 67 66 66 65 64 63 61 59 57 55 54 53 52 51 51 52 52 52 52 53 54 54 53 52 51 51 51 50 49 46 41 37 36 36 37 40 42 43 44 45 45 46 47 48 50 51 51 51 52 52 52 51 50 49 50 50 49 49 49 49
89 85 80 72 68 68 68 67 65 64 63 60 58 57 55 54 52 52 52 53 54 53 52 53 53 53 54 54 53 53 52 52 51 46 41 38 37 37 39 41 43 44 44 44 44 45 47 48 49 49 48 49 50 51 51 50 49 50 49 48 47 47 46
91 90 86 79 74 72 72 70 68 67 65 63 62 61 60 58 57 57 55 55 56 56 55 54 53 53 54 55 55 55 54 53 52 49 44 40 39 38 38 39 41 43 43 43 43 44 45 46 46 46 47 47 47 48 49 50 50 49 48 47 46 45 45
90 90 89 85 82 80 77 75 73 72 71 68 67 66 65 65 65 65 64 63 61 61 60 60 58 57 56 57 58 58 56 54 53 50 45 42 40 40 39 40 40 41 42 43 44 46 46 47 46 45 46 47 47 47 46 46 47 46 45 45 44 44 44
88 90 89 87 86 85 83 80 79 78 76 74 72 71 70 71 72 74 76 75 73 70 68 66 65 64 63 64 65 64 61 57 54 52 47 43 42 42 41 40 40 40 42 44 46 47 47 48 48 47 48 48 47 47 46 44 43 43 42 42 42 42 43
86 88 88 88 87 87 86 85 84 83 81 80 77 75 74 75 76 78 80 82 82 80 77 75 73 71 70 70 72 74 73 68 62 57 52 48 46 44 42 42 42 43 44 46 48 48 49 50 51 50 51 50 49 48 48 47 46 46 45 44 43 42 42
82 84 86 87 87 88 87 86 86 86 86 84 82 80 79 79 79 79 80 82 82 82 82 81 80 80 79 77 76 78 81 82 78 72 64 58 55 53 48 44 42 44 47 49 50 51 53 58 59 54 51 51 51 51 51 51 50 49 48 47 45 43 41
80 81 82 84 86 88 89 88 88 88 87 87 85 84 83 82 82 81 81 80 80 82 83 83 82 83 84 82 80 80 83 85 85 84 77 68 65 67 64 52 46 48 50 52 54 54 58 68 69 61 56 57 57 55 54 52 50 49 47 46 45 43 41
81 81 81 83 85 85 86 86 86 86 86 86 86 86 86 86 85 83 82 81 81 82 84 85 85 84 84 85 86 86 87 86 86 89 87 76 69 75 80 71 61 57 54 56 61 59 59 68 72 65 63 65 66 64 61 59 57 54 51 50 49 48 46
82 81 81 82 82 80 79 80 81 83 83 83 84 85 86 86 86 86 85 85 84 84 84 85 86 86 86 86 87 89 90 88 86 90 91 84 75 77 85 83 76 67 60 64 70 64 60 66 72 69 68 71 74 73 71 69 68 66 65 64 62 61 58
84 82 83 83 82 80 79 79 80 81 81 81 82 82 83 84 86 88 89 89 89 89 88 87 87 87 88 87 89 91 92 89 88 89 91 89 84 84 88 86 81 75 71 71 73 70 67 70 73 73 73 74 77 79 79 79 79 78 78 77 75 75 72
84 82 85 85 83 81 79 79 81 81 80 81 82 82 83 84 86 87 88 89 90 89 90 91 91 90 90 90 90 91 92 93 93 92 91 90 89 90 92 89 84 83 81 78 78 77 76 77 78 79 79 79 80 81 81 81 81 81 81 81 81 81 80
83 82 83 83 81 81 79 78 80 81 81 81 81 81 83 83 83 83 84 87 90 92 93 93 93 94 94 95 94 93 94 97 98 94 91 90 91 92 93 91 88 87 86 84 83 82 80 80 81 82 83 83 84 83 83 82 83 83 84 85 85 86 86
83 82 81 81 80 80 80 78 78 79 80 80 79 79 80 80 80 83 84 85 88 91 93 93 93 96 97 96 95 95 95 96 96 93 92 92 93 93 93 92 89 88 88 87 85 82 80 80 80 82 84 85 86 87 87 86 87 87 87 87 87 87 87
79 78 78 79 77 78 79 77 77 78 79 80 80 80 80 79 81 83 85 86 86 87 88 89 91 93 94 92 93 94 94 93 92 92 92 92 92 93 93 91 89 87 87 87 85 83 81 82 82 83 85 86 86 87 87 86 86 86 85 84 83 82 82
73 70 71 74 74 75 78 78 79 82 82 82 81 81 80 79 79 80 80 83 86 85 81 82 86 89 90 90 90 90 89 88 88 90 91 91 90 91 90 89 87 87 88 88 87 86 84 84 85 84 83 84 84 84 84 84 82 81 80 79 79 78 78
67 65 65 68 69 71 73 74 78 81 85 88 87 84 83 81 79 78 76 79 83 83 80 80 84 87 88 89 90 90 90 89 89 89 89 87 85 86 87 88 89 91 92 91 90 89 87 86 86 84 82 82 80 78 78 78 77 74 73 73 73 72 72
62 62 62 63 64 65 66 70 73 73 76 82 84 85 87 87 82 79 78 79 81 82 82 82 83 84 86 87 86 85 86 86 84 83 83 82 80 81 83 87 89 90 91 91 90 89 88 87 86 84 81 78 75 72 70 70 70 68 67 65 64 62 60
57 58 59 60 61 61 63 68 71 70 68 70 72 77 81 81 77 75 76 77 78 80 80 77 74 75 76 77 77 76 76 77 76 75 75 77 78 78 79 82 85 87 88 89 88 86 84 84 84 84 82 79 76 74 71 69 68 68 67 65 63 62 60
55 55 55 57 58 59 61 64 67 68 67 65 65 68 71 71 71 71 72 73 73 74 73 70 69 70 71 72 74 73 72 72 72 73 74 75 76 77 76 77 79 82 82 82 81 80 79 78 79 79 77 75 73 71 69 67 65 65 65 64 63 62 61
55 53 53 54 55 56 57 60 63 65 63 60 58 59 63 67 71 73 74 73 72 71 70 69 68 69 70 69 69 69 68 68 69 70 69 68 68 67 66 66 66 67 67 66 67 69 70 70 70 69 68 67 63 59 56 55 55 54 53 52 51 48 47
55 53 52 52 52 52 51 53 57 58 57 57 57 57 59 63 68 70 71 71 70 69 69 69 69 69 69 68 67 66 66 66 65 63 61 59 57 56 55 54 54 54 53 53 54 55 57 58 60 60 61 61 58 53 50 50 48 45 43 40 38 37 36
57 55 53 52 53 52 51 52 53 54 56 58 59 60 60 60 62 64 66 66 66 64 64 64 64 64 64 63 62 62 61 60 59 58 56 55 55 54 53 52 51 50 50 48 47 48 48 49 49 49 49 49 48 47 47 46 45 44 42 41 39 37 36
61 59 57 56 57 57 57 58 58 58 59 60 59 58 57 55 55 56 59 60 60 59 57 57 57 57 56 56 55 55 55 54 54 54 53 52 52 51 51 50 49 48 48 46 45 45 45 45 44 43 42 42 41 41 42 42 42 43 43 42 41 40 39
66 63 60 59 59 59 59 61 62 62 61 61 60 59 57 56 55 56 57 57 57 57 56 55 55 55 55 54 53 52 52 51 51 50 49 49 48 47 46 45 44 44 43 43 42 42 42 42 42 41 41 40 39 39 39 39 39 39 39 38 37 37 37
67 64 61 61 60 58 57 59 61 63 63 62 61 60 59 58 57 56 57 56 56 55 54 54 54 53 52 52 51 50 49 48 47 47 46 45 45 43 42 41 41 40 39 39 39 39 39 40 40 40 39 39 38 38 37 36 36 35 34 34 33 32 32